Regional Weather Roundup
Issued by NWS

Home | Current Version | Previous Version | Text Only | Print | Product List | Glossary On
Versions: 1 2 3 4 5 6 7 8 9 10 11 12 13 14 15 16 17 18 19 20 21 22 23 24 25 26 27 28 29 30 31 32 33 34 35 36 37 38 39 40 41 42 43 44 45 46 47 48 49 50
000
ASUS44 KBMX 050510
RWRAL

ALABAMA REGIONAL WEATHER ROUNDUP
NATIONAL WEATHER SERVICE BIRMINGHAM AL
1100 PM CST SUN DEC 04 2016

NOTE: "FAIR" INDICATES FEW OR NO CLOUDS BELOW 12,000 FEET
WITH NO SIGNIFICANT WEATHER AND/OR OBSTRUCTIONS TO VISIBILITY.

THE REMARK "TC" DENOTES TEMPERATURE IN DEGREES CELSIUS.

ALZ001>011-014-016>018-020-050600-
NORTH ALABAMA

CITY           SKY/WX    TMP DP  RH WIND       PRES   REMARKS
MUSCLE SHOALS  CLOUDY    49  46  90 NW3       30.04S
HUNTSVILLE     DRZL/FOG  50  49  96 NE5       30.01F VSB 1/2
DECATUR        CLOUDY    49  49 100 N6        30.03S FOG
HALEYVILLE     CLOUDY    47  46  97 N3        30.04R
GADSDEN        LGT RAIN  47  47 100 E7        30.02F FOG
$$

ALZ012-013-022-023-030>036-040>044-050600-
WEST CENTRAL ALABAMA

CITY           SKY/WX    TMP DP  RH WIND       PRES   REMARKS
TUSCALOOSA     CLOUDY    53  52  96 N6        29.99F
$$

ALZ015-024>027-033>036-040>044-050600-
CENTRAL ALABAMA

CITY           SKY/WX    TMP DP  RH WIND       PRES   REMARKS
BIRMINGHAM     DRIZZLE   50  50 100 CALM      30.03F FOG
MONTGOMERY     LGT RAIN  55  51  86 E10       29.98F
SHELBY CO ARPT CLOUDY    52  52 100 VRB3      30.01S
MAXWELL AFB    LGT RAIN  54  54 100 E6        29.96F
GREENVILLE     FOG       61  57  87 E6        29.95F VSB 1/2
$$

ALZ019-021-028-029-037-038-045>048-050600-
EAST CENTRAL ALABAMA

CITY           SKY/WX    TMP DP  RH WIND       PRES   REMARKS
ANNISTON       LGT RAIN  48  47  96 NE9       30.02F
ALEXANDER CITY CLOUDY    52  51  96 CALM      29.99F
AUBURN         LGT RAIN  49  48  97 NE7       30.01F
$$

ALZ051>064-050600-
SOUTHWEST ALABAMA

CITY           SKY/WX    TMP DP  RH WIND       PRES   REMARKS
MOBILE         CLOUDY    62  32  32 E6        29.95F
BROOKLEY FIELD CLOUDY    63  62  97 E8        29.96F
EVERGREEN      LGT RAIN  61  60  97 VRB5      29.98S
$$

ALZ049-050-065>069-050600-
SOUTHEAST ALABAMA

CITY           SKY/WX    TMP DP  RH WIND       PRES   REMARKS
DOTHAN         CLOUDY    62  62 100 NE9       30.01F
OZARK          LGT RAIN  62  62 100 CALM      29.97S
TROY           CLOUDY    56  56 100 VRB3      29.99F
EUFAULA        LGT RAIN  53  51  93 VRB3      29.99F FOG
$$



USA.gov is the U.S. government's official web portal to all federal, state and local government web resources and services.